| time (UTC) | temp F | wind direction | speed MPH | gust MPH | rain 1hr in | rain 24hr in | rain mn in | humidity % | barometer mb |
| 20260506061538 | 58 | 67 | 0.0 | 1.0 | 0.02 | 0.03 | 0.01 | 94 | 1106.9 |
| 20260506050141 | 57 | 67 | 0.0 | 1.0 | 0.01 | 0.01 | 0.01 | 92 | 1106.9 |
| 20260506044658 | 57 | 67 | 0.0 | 2.0 | 0.01 | 0.01 | 0.01 | 92 | 1107.2 |
| 20260506043031 | 57 | 58 | 0.0 | 3.0 | 0.01 | 0.01 | 0.00 | 92 | 1107.5 |
| 20260506041606 | 56 | 360 | 0.0 | 2.0 | 0.00 | 0.00 | 0.00 | 91 | 1107.7 |
| 20260506040042 | 56 | 360 | 0.0 | 1.0 | 0.00 | 0.00 | 0.00 | 91 | 1107.8 |
| 20260506034528 | 56 | 360 | 0.0 | 0.0 | 0.00 | 0.00 | 0.00 | 89 | 1107.7 |
| 20260506033050 | 0 | 0 | 0.0 | 0.0 | 0.00 | 0.00 | 0.00 | 100 | |
| 20260506030042 | 0 | 0 | 0.0 | 0.0 | 0.00 | 0.00 | 0.00 | 100 | |
| 20260506024615 | 0 | 0 | 0.0 | 0.0 | 0.00 | 0.00 | 0.00 | 100 | |
| 20260506023038 | 0 | 0 | 0.0 | 0.0 | 0.00 | 0.00 | 0.00 | 100 | |
| 20260506021644 | 0 | 0 | 0.0 | 0.0 | 0.00 | 0.00 | 0.00 | 100 | |
| 20260506020051 | 0 | 0 | 0.0 | 0.0 | 0.00 | 0.00 | 0.00 | 100 | |
| 20260506011551 | 61 | 360 | 0.0 | 1.0 | 0.00 | 0.00 | 0.00 | 79 | 1106.5 |
| 20260506010151 | 0 | 0 | 0.0 | 0.0 | 0.00 | 0.00 | 0.00 | 100 | |
| 20260506004611 | 63 | 360 | 0.0 | 0.0 | 0.00 | 0.00 | 0.00 | 77 | 1106.8 |
| 20260506003039 | 64 | 360 | 0.0 | 0.0 | 0.00 | 0.00 | 0.00 | 74 | 1106.7 |
| 20260506001551 | 66 | 17 | 0.0 | 0.0 | 0.00 | 0.00 | 0.00 | 70 | 1106.5 |
| 20260506000038 | 67 | 22 | 0.0 | 0.0 | 0.00 | 0.00 | 0.00 | 67 | 1106.4 |
| 20260505234639 | 71 | 239 | 5.0 | 13.0 | 0.00 | 0.00 | 0.00 | 50 | 1111.0 |
| 20260505163143 | 70 | 249 | 5.0 | 11.0 | 0.00 | 0.00 | 0.00 | 50 | 1111.1 |
| 20260505161616 | 70 | 249 | 5.0 | 11.0 | 0.00 | 0.00 | 0.00 | 50 | 1111.0 |
| 20260505153039 | 70 | 255 | 4.0 | 7.0 | 0.00 | 0.00 | 0.00 | 51 | 1111.1 |
| 20260505124530 | 53 | 124 | 2.0 | 4.0 | 0.00 | 0.00 | 0.00 | 98 | 1111.2 |
| 20260505121602 | 48 | 202 | 0.0 | 0.0 | 0.00 | 0.00 | 0.00 | 97 | 1110.8 |
| 20260505120031 | 44 | 185 | 0.0 | 0.0 | 0.00 | 0.00 | 0.00 | 97 | 1110.7 |
| 20260505114528 | 43 | 180 | 0.0 | 0.0 | 0.00 | 0.00 | 0.00 | 97 | 1110.7 |
| 20260505113052 | 41 | 209 | 0.0 | 0.0 | 0.00 | 0.00 | 0.00 | 96 | 1109.8 |
| 20260505094606 | 42 | 202 | 0.0 | 0.0 | 0.00 | 0.00 | 0.00 | 96 | 1109.9 |
| 20260505093041 | 42 | 202 | 0.0 | 0.0 | 0.00 | 0.00 | 0.00 | 96 | 1109.9 |
| 20260505091540 | 42 | 202 | 0.0 | 0.0 | 0.00 | 0.00 | 0.00 | 96 | 1110.0 |
| 20260505090041 | 42 | 202 | 0.0 | 0.0 | 0.00 | 0.00 | 0.00 | 95 | 1109.8 |
| 20260505084531 | 43 | 202 | 0.0 | 0.0 | 0.00 | 0.00 | 0.00 | 95 | 1109.6 |
| 20260505081530 | 44 | 202 | 0.0 | 0.0 | 0.00 | 0.00 | 0.00 | 95 | 1109.3 |
| 20260505080107 | 44 | 202 | 0.0 | 0.0 | 0.00 | 0.00 | 0.00 | 95 | 1109.3 |
| 20260505074530 | 44 | 202 | 0.0 | 0.0 | 0.00 | 0.00 | 0.00 | 95 | 1109.2 |
| 20260505073154 | 45 | 202 | 0.0 | 0.0 | 0.00 | 0.00 | 0.00 | 95 | 1109.2 |
| 20260505073143 | 45 | 202 | 0.0 | 0.0 | 0.00 | 0.00 | 0.00 | 95 | 1109.3 |